Zurück zum Katalog

STARLINK-4442

AktivKommunikationPO
NORAD 53480·PAYLOAD·🇺🇸 United States

Gestartet Aug 12, 2022 von Vandenberg Space Force Base

Loading…

Nächste Überflüge (nächste 24 Stunden)

TLE

AktuellSource: CelesTrak SupGP

Epoche: Sep 14, 2026, 21:38 UTC

1 53480C 22099R   26257.90187500  .00468120  00000+0  56472-3 0  2578
2 53480  97.6123  30.2010 0002084 354.7514 328.2709 16.08004181    10

Verfolge STARLINK-4442 in Echtzeit mit AllMySat

Download on the App Store